Location: Anjeux
(47.8815°N, 6.2076°E)
Time: 20:16:06
(UTC+00:00)

KKS-1 - Pass Details

Date: 04 December 2021
Orbit: 635 x 650 km, 98.2° (Epoch: 20 January)

Event Time Altitude Azimuth Distance (km) Brightness Sun altitude
Rises 06:18:32 0° 103° (ESE) 2,967 ? -8.0°
Maximum altitude 06:23:29 10° 54° (NE) 2,065 ? -7.2°
Drops below altitude 10° 06:23:38 10° 52° (NE) 2,067 ? -7.2°
Sets 06:28:28 0° 5° (N) 2,979 ? -6.5°
